SCP
0 0 0 0 0 0 0 0 0 -0 -0 -0 0 -0 -0 0 0 0 -0 -0 -0 -0 0 -0 -0 -0 0 -0 -0 -0 0 -0 -0 -0 -0 -0 -0 -0 -0 -0 -0 -0 -0 -0 -0 -0 -0 -0 -0
0 0 0 0 0 0 0 0 0 0 -0 -0 -0 -0 0 0 -0 -0 0 -0 -0 -0 -0 -0 -0 0 0 -0 -0 -0 -0 -0 -0 -0 -0 -0 -0 -0 -0 -0 -0 -0 -0 -0 -0 -0 -0 -0 -0
0 0 0 0 0 0 0 0 0 0 0 0 0 0 -0 0 0 -0 -0 -0 -0 -0 -0 -0 0 0 0 -0 -0 -0 -0 -0 -0 -0 -0 -0 -0 -0 -0 -0 -0 -0 -0 -0 -0 -0 -0 -0 -0
0 0 0 0 0 0 0 0 0 0 0 -0 0 0 0 0 -0 0 -0 -0 -0 -0 0 0 0 0 -0 -0 -0 -0 -0 -0 -0 -0 -0 -0 -0 -0 -0 -0 -0 -0 -0 -0 -0 -0 -0 -0 -0
0 0 0 0 0 0 0 0 0 0 0 0 -0 0 0 0 -0 -0 -0 0 0 -0 -0 0 0 0 -0 -0 -0 -0 -0 -0 -0 -0 -0 -0 -0 -0 -0 -0 -0 -0 -0 -0 -0 -0 -0 -0 -0
0 0 0 0 0 0 0 0 0 0 0 0 0 0 0 0 -0 0 0 0 -0 -0 -0 0 0 0 0 -0 -0 -0 -0 -0 -0 -0 -0 -0 -0 -0 -0 -0 -0 -0 -0 -0 -0 -0 -0 -0 -0
0 0 0 0 0 0 0 0 0 0 0 0 0 0 0 0 0 0 0 0 0 -0 -0 0 0 0 0 0 0 0 0 0 0 0 -0 -0 -0 -0 -0 -0 -0 -0 -0 -0 -0 -0 0 0 0
0 0 0 0 0 0 0 0 0 0 0 0 0 0 0 0 0 0 0 -0 -0 -0 -0 0 0 0 0 0 -0 -0 -0 0 0 0 0 0 -0 -0 -0 -0 -0 -0 -0 -0 -0 0 0 0 0
0 0 0 0 0 0 0 0 0 0 0 0 0 0 0 0 0 0 0 0 0 -0 -0 -0 -0 -0 0 0 0 -0 -0 -0 -0 -0 0 0 -0 0 0 -0 -0 -0 -0 -0 0 0 0 0 0
0 0 0 0 0 0 0 0 0 0 0 0 0 0 -0 0 0 0 0 0 0 0 -0 -0 -0 -0 0 0 0 0 0 0 -0 -0 -0 -0 0 0 0 0 -0 0 0 0 0 0 0 0 0
0 0 0 0 0 0 0 0 0 0 0 0 0 -0 -0 -0 0 0 0 0 0 0 0 0 0 0 0 0 0 0 -0 -0 -0 0 0 0 0 0 0 0 0 0 0 0 0 0 0 0 0
0 0 0 0 0 0 0 0 0 0 0 0 0 -0 -0 -0 0 0 0 0 0 0 0 0 0 -0 -0 0 0 0 -0 -0 -0 0 0 0 0 0 0 0 0 0 0 0 0 0 0 0 0
0 0 0 0 0 0 0 0 0 0 0 0 0 0 0 0 0 0 0 0 0 0 0 0 0 0 0 0 0 -0 -0 0 0 0 0 0 0 0 0 0 0 0 0 0 0 0 0 0 0
0 0 0 0 0 0 0 0 0 0 0 0 0 0 0 0 0 0 0 0 0 0 0 0 0 0 0 0 0 -0 -0 0 0 -0 -0 -0 0 0 0 0 0 0 0 0 0 0 0 0 0
0 0 0 0 0 0 0 0 0 0 0 0 0 0 0 0 0 0 0 0 0 0 0 0 0 0 0 0 0 0 0 -0 -0 -0 -0 -0 -0 0 0 0 0 0 0 0 0 0 0 0 0
0 0 0 0 0 0 0 0 0 0 0 0 0 0 0 -0 0 -0 0 0 0 0 0 0 0 0 0 0 0 0 0 0 0 -0 0 0 0 0 0 0 0 0 0 0 0 0 0 0 0
0 0 0 0 0 0 0 0 0 0 0 0 0 0 0 0 -0 -0 -0 0 0 -0 0 0 0 0 0 0 0 0 0 0 0 0 0 0 0 0 0 0 0 0 0 0 0 0 0 0 0
0 0 0 0 0 0 0 0 0 0 0 0 0 0 0 0 0 -0 -0 -0 0 0 0 0 0 0 0 0 0 0 0 0 0 0 0 0 0 0 0 0 0 0 0 0 0 0 0 0 0
0 0 0 0 0 0 0 0 0 0 0 0 0 0 0 0 -0 -0 0 0 0 0 0 0 0 0 0 0 0 0 0 0 0 0 0 0 0 0 0 0 0 0 0 0 0 0 0 0 0
0 0 0 0 0 0 0 0 0 0 0 0 0 0 0 0 0 0 0 0 0 0 0 0 0 0 0 0 0 0 0 0 0 0 0 0 0 0 0 0 0 0 0 0 0 0 0 0 0
0 0 0 0 0 0 0 0 0 0 0 0 0 0 0 0 0 0 0 0 0 0 0 0 0 0 0 0 0 0 0 0 0 0 0 0 0 0 0 0 0 0 0 0 0 0 0 0 0
0 0 0 0 0 0 0 0 0 0 0 0 0 0 0 0 0 0 0 0 0 0 0 0 0 0 0 0 0 0 0 0 0 0 0 0 0 0 0 0 0 0 0 0 0 0 0 0 0
0 0 0 0 0 0 0 0 0 0 0 0 0 0 0 0 0 0 0 0 0 0 0 0 0 0 0 0 0 0 0 0 0 0 0 0 0 0 0 0 0 0 0 0 0 0 0 0 0
0 0 0 0 0 0 0 0 0 0 0 0 0 0 0 0 0 0 0 0 0 0 0 0 0 0 0 0 0 0 0 0 0 0 0 0 0 0 0 0 0 0 0 0 0 0 0 0 0
0 0 0 0 0 0 0 0 0 0 0 0 0 0 0 0 0 0 0 0 0 0 0 0 0 0 0 0 0 0 0 0 0 0 0 0 0 0 0 0 0 0 0 0 0 0 0 0 0
0 0 0 0 0 0 0 0 0 0 0 0 0 0 0 0 0 0 0 0 0 0 0 0 0 0 0 0 0 0 0 0 0 0 0 0 0 0 0 0 0 0 0 0 0 0 0 0 0
0 0 0 0 0 0 0 0 0 0 0 0 0 0 0 0 0 0 0 0 0 0 0 0 0 0 0 0 0 0 0 0 0 0 0 0 0 0 0 0 0 0 0 0 0 0 0 0 0
0 0 0 0 0 0 0 0 0 0 0 0 0 0 0 0 0 0 0 0 0 0 0 0 0 0 0 0 0 0 0 0 0 0 0 0 0 0 0 0 0 0 0 0 0 0 0 0 0
0 0 0 0 0 0 0 0 0 0 0 0 0 0 0 0 0 0 0 0 0 0 0 0 0 0 0 0 0 0 0 0 0 0 0 0 0 0 0 0 0 0 0 0 0 0 0 0 0
0 0 0 0 0 0 0 0 0 0 0 0 0 0 0 0 0 0 0 0 0 0 0 0 0 0 0 0 0 0 0 0 0 0 0 0 0 0 0 0 0 0 0 0 0 0 0 0 0
Wind_Speed_500mb
7 9 3 4 7 9 5 6 3 8 7 11 24 32 18 15 5 7 41 24 27 33 30 24 21 27 30 28 26 22 23 22 21 26 32 31 33 31 29 26 27 30 36 38 39 40 38 39 37
8 8 5 7 8 4 8 6 8 7 31 41 30 24 19 5 12 33 41 25 22 36 29 25 27 32 35 31 26 21 21 22 23 27 36 24 27 30 30 30 30 35 38 40 37 35 34 35 30
7 6 2 8 6 7 9 5 12 18 20 11 13 25 12 13 32 38 31 35 28 35 29 30 33 38 34 31 24 19 20 22 24 26 40 25 23 27 29 32 32 32 35 34 33 32 33 31 25
8 6 8 8 8 7 14 13 13 22 20 15 35 17 16 13 29 25 42 29 27 34 31 35 38 36 33 32 22 18 21 21 23 27 29 27 26 29 29 29 32 31 31 30 30 22 28 24 17
6 5 7 2 6 2 4 28 20 12 14 24 12 9 9 34 26 35 37 30 30 35 34 38 40 37 34 32 23 18 21 22 23 24 26 25 24 27 28 29 31 28 29 27 23 26 25 24 19
4 4 7 4 4 6 6 35 26 13 17 25 25 18 8 33 37 42 35 31 32 39 41 42 42 36 34 31 23 20 22 22 25 26 25 25 25 26 29 28 27 23 24 24 24 24 25 22 15
5 7 9 8 10 4 12 32 30 26 23 12 40 11 28 52 45 43 35 32 37 38 40 41 41 37 33 28 22 22 23 24 24 24 25 25 25 23 24 23 22 22 21 21 21 20 18 17 14
5 9 10 6 11 9 11 16 37 42 9 37 32 16 25 60 50 43 38 33 40 38 37 38 37 35 31 27 23 23 24 24 24 23 23 23 22 20 19 18 17 16 16 17 16 15 14 13 12
7 7 6 11 14 9 18 10 14 15 28 15 20 23 44 70 59 49 42 41 40 38 38 37 35 33 29 26 26 24 23 21 20 21 22 21 20 18 16 15 13 13 14 13 12 11 11 11 11
7 8 15 12 11 14 20 25 23 13 19 8 18 24 76 76 67 58 53 49 46 44 42 38 34 31 30 27 26 23 21 19 18 18 18 19 18 17 16 14 14 14 13 12 11 10 10 11 10
9 11 10 7 18 35 34 28 14 37 4 23 44 61 86 79 72 64 57 50 46 43 43 40 37 33 30 27 25 22 18 15 14 14 13 14 14 13 13 12 11 11 12 11 10 9 8 8 9
5 8 11 5 8 30 33 32 15 25 13 33 39 62 80 86 78 70 61 54 46 44 44 41 39 35 31 28 24 21 18 15 12 10 9 9 10 9 9 9 8 7 7 8 8 8 8 10 12
9 9 14 14 19 23 27 20 16 28 16 33 51 64 73 82 77 70 56 51 47 44 46 46 44 40 35 29 26 22 19 17 14 10 8 5 4 2 2 3 3 5 6 7 7 7 8 9 10
19 15 12 21 21 23 17 10 20 20 28 54 60 64 66 75 79 68 63 57 54 44 39 39 39 37 36 34 29 26 20 18 16 13 9 8 7 6 4 4 5 7 10 11 11 12 13 16 17
21 11 3 8 20 9 29 3 11 34 44 64 64 59 62 69 73 75 68 61 55 47 38 39 37 38 39 34 32 29 22 22 16 17 15 13 13 12 10 10 10 10 11 13 13 15 17 18 17
8 8 9 7 19 9 11 14 12 40 57 63 62 56 58 65 69 69 66 60 54 46 46 40 38 37 38 39 36 34 33 26 23 18 18 19 17 17 16 15 13 14 14 14 16 17 17 20 26
9 10 8 6 15 7 5 8 11 46 55 64 61 58 58 55 60 57 58 58 53 48 46 44 41 39 35 36 43 40 39 33 31 27 22 19 16 18 18 17 16 18 17 16 17 20 23 25 32
13 10 6 13 15 8 7 9 8 46 47 55 58 57 59 60 61 53 54 53 55 52 51 47 41 41 38 35 38 43 47 48 40 35 32 26 21 18 17 18 18 19 18 19 24 28 31 35 39
10 8 11 4 10 9 17 9 17 35 35 38 48 54 60 63 55 55 56 56 55 58 57 55 52 48 47 46 44 47 47 45 45 44 36 34 30 26 25 22 23 23 23 24 30 32 37 39 43
11 13 7 3 2 7 11 18 10 19 31 52 57 57 59 59 58 59 59 64 60 58 60 58 55 52 51 49 46 44 44 43 39 37 35 32 30 28 27 26 26 29 31 31 32 36 39 43 43
20 10 12 12 7 6 12 12 9 14 33 39 46 54 58 63 61 64 63 63 65 64 61 60 56 50 48 43 40 39 42 41 38 37 35 31 31 30 30 31 31 32 35 34 33 34 34 35 37
26 15 14 19 12 9 8 9 13 15 19 20 48 49 56 61 64 59 63 65 64 64 64 62 61 55 49 43 41 41 40 40 37 34 31 29 28 27 27 24 25 26 27 27 26 28 29 32 36
18 14 21 14 8 11 6 4 13 7 16 19 46 55 51 58 61 61 64 64 64 65 66 64 63 63 61 54 44 38 39 35 32 29 27 24 21 18 19 18 19 20 22 23 25 27 26 24 31
9 12 14 9 7 7 14 14 12 13 18 17 24 60 53 53 61 64 63 61 60 62 66 67 66 64 60 54 46 47 41 38 33 27 26 24 22 20 19 20 19 19 19 16 15 15 16 20 23
17 17 5 2 4 15 1 5 18 10 12 14 41 69 60 59 58 59 57 56 53 54 55 61 68 70 65 55 52 49 44 40 35 32 30 27 25 22 20 20 15 10 9 9 10 12 15 19 24
23 22 11 15 12 8 8 14 12 9 14 24 35 71 58 58 56 51 48 45 45 44 45 49 58 64 65 59 54 51 46 42 38 35 34 31 27 23 19 12 9 4 2 5 10 15 20 24 28
17 19 11 15 5 8 9 12 14 4 1 9 35 63 62 55 50 48 45 41 39 37 38 42 52 56 58 58 60 53 45 42 37 38 36 32 26 21 17 12 7 2 5 10 16 21 24 28 31
16 17 6 4 11 7 7 8 10 12 17 15 24 53 62 52 48 46 43 39 37 40 42 46 49 53 57 58 59 65 53 36 37 36 34 31 28 23 17 10 4 6 12 17 21 25 27 29 34
5 7 5 11 8 11 4 12 17 28 32 39 39 49 61 57 54 49 44 42 41 42 47 49 50 53 55 56 58 56 44 43 41 39 37 33 27 19 12 5 6 11 15 19 23 27 32 37 41
4 14 12 10 9 1 6 10 5 11 17 30 40 58 59 57 54 50 48 47 47 47 47 48 51 54 52 52 53 55 54 49 44 40 35 28 21 14 7 5 8 14 19 24 29 34 40 45 49
Wind_Direction_500mb
247 256 200 120 58 63 288 220 151 125 59 73 88 91 103 58 64 169 139 148 168 170 166 162 150 142 140 129 119 100 85 83 95 98 91 86 85 94 100 96 95 91 94 94 91 95 93 92 92
249 248 148 101 88 72 270 320 139 147 127 102 81 87 61 69 107 139 154 159 164 169 167 159 151 142 138 132 127 104 93 92 97 98 92 89 81 88 92 94 92 93 93 95 96 95 105 101 100
235 228 135 97 117 182 185 212 157 125 130 124 101 74 82 113 126 144 161 159 169 176 167 156 151 143 142 139 132 107 96 97 99 108 107 109 99 90 92 94 92 98 96 100 105 105 106 104 100
221 158 76 92 231 234 167 189 169 125 104 85 117 72 95 135 145 157 156 159 165 168 161 155 151 141 142 143 131 102 96 99 103 112 118 111 92 89 92 99 92 95 103 103 106 106 110 114 118
236 125 73 119 294 29 152 163 156 123 113 134 128 114 85 153 166 164 160 157 173 155 153 151 149 143 144 145 131 110 108 110 107 108 108 105 95 92 95 99 99 99 88 91 87 90 107 116 113
235 114 77 199 256 98 184 164 146 130 131 131 111 102 124 155 176 170 159 155 161 151 148 150 153 149 144 147 137 120 110 110 110 111 107 103 99 98 99 101 98 100 90 88 85 97 99 106 112
162 95 179 193 172 196 202 174 151 140 148 156 135 95 142 156 167 166 163 158 158 154 148 150 153 152 148 146 132 125 119 116 112 110 106 101 103 99 98 99 90 92 87 86 84 91 94 93 85
223 103 145 185 177 215 183 153 149 148 150 150 140 151 171 165 168 170 169 165 160 155 152 151 153 158 154 148 137 133 127 123 119 113 106 100 100 98 95 91 88 81 78 73 72 78 81 79 74
196 74 174 201 152 225 172 130 151 157 142 151 187 178 175 165 165 172 177 169 172 164 158 156 156 156 156 153 145 145 139 128 118 112 108 105 102 100 92 85 84 76 71 68 65 65 59 58 59
160 142 209 189 198 189 168 134 138 143 133 111 151 167 159 167 171 176 181 177 177 172 166 162 161 161 163 162 158 152 147 138 126 113 109 105 99 96 91 86 82 73 70 64 56 52 47 50 50
179 201 199 226 212 190 156 145 153 146 232 176 154 154 161 172 177 183 186 187 183 178 173 170 170 171 170 169 168 164 159 152 144 131 120 109 102 93 90 85 77 66 59 48 40 37 31 38 42
204 237 191 210 174 174 161 156 149 164 205 190 181 165 167 176 182 187 188 188 186 188 183 177 178 178 175 179 177 176 171 169 166 152 134 120 103 91 77 72 58 45 33 21 14 20 10 7 19
226 213 168 166 180 177 155 158 172 199 176 172 169 169 176 180 186 191 194 193 193 194 196 191 188 184 184 184 187 188 185 181 185 182 176 152 124 107 63 55 21 358 355 341 336 340 350 355 349
217 201 177 168 146 166 157 147 167 180 170 169 174 180 184 186 189 193 196 198 202 203 207 206 199 195 190 190 192 196 195 199 203 201 203 209 227 247 270 306 316 322 324 323 323 324 327 326 321
206 118 6 186 161 162 145 106 203 169 169 172 182 188 192 194 194 198 202 204 206 209 212 213 211 211 200 198 198 204 208 208 218 222 220 225 235 251 268 279 295 305 308 321 318 316 322 325 327
177 91 152 242 157 181 145 227 218 175 173 179 187 191 197 198 201 203 205 210 211 214 216 216 216 218 216 212 207 203 208 215 220 228 226 232 241 248 256 266 276 282 293 305 321 319 315 328 325
212 175 161 164 195 131 168 204 213 177 181 182 191 195 199 199 206 209 210 211 213 215 218 219 224 224 226 234 217 212 215 223 226 238 238 239 241 243 254 262 270 277 286 300 310 321 313 319 311
175 155 149 162 202 136 196 230 173 183 191 194 197 199 204 205 210 207 212 214 215 221 225 229 230 229 231 234 229 214 215 220 217 224 239 234 243 248 254 262 264 278 300 300 301 298 304 305 305
174 134 145 221 191 123 197 203 203 185 201 204 207 208 207 211 212 211 214 216 216 221 224 225 228 230 229 228 227 217 219 219 221 226 236 235 242 251 261 270 280 286 285 286 288 295 297 299 304
267 169 177 13 83 142 169 231 215 199 216 210 213 213 209 205 206 208 209 211 215 219 222 226 231 233 232 234 239 236 222 224 227 230 233 236 240 249 257 265 269 272 278 281 287 291 294 299 307
245 192 177 159 128 30 116 293 213 239 230 224 223 220 211 208 205 205 205 208 210 214 221 226 230 231 232 234 234 230 221 225 227 227 232 240 252 256 258 259 258 260 268 276 281 289 299 300 302
251 189 173 145 135 184 165 244 233 214 219 214 219 213 214 210 207 207 205 208 209 213 217 224 227 229 230 229 229 233 230 223 228 233 237 240 242 247 252 254 257 258 263 273 281 286 292 291 300
249 149 159 160 125 123 228 124 263 139 225 220 219 210 207 207 205 203 203 207 212 216 218 219 222 224 225 224 227 230 225 226 232 227 229 228 229 223 233 240 249 257 267 273 279 282 287 289 288
221 103 59 61 107 224 204 159 253 192 201 212 208 204 195 194 196 198 201 208 214 220 221 221 223 224 222 218 220 223 229 225 228 224 215 217 220 222 230 242 249 256 257 266 281 298 307 301 308
193 156 117 192 206 206 67 169 234 235 237 208 191 198 198 195 199 202 209 218 224 227 226 223 223 225 224 215 212 219 222 224 228 223 220 219 219 223 230 237 244 247 265 291 312 321 323 321 317
204 190 159 179 199 174 133 226 237 224 288 264 216 196 191 195 203 210 217 220 222 222 220 217 217 217 218 213 200 213 215 220 221 216 211 214 212 214 217 212 221 227 282 328 322 319 320 321 322
200 201 160 99 7 83 205 276 304 206 342 173 172 180 186 196 202 209 212 214 209 206 203 201 203 204 207 206 199 200 202 210 204 197 199 200 199 185 176 168 167 222 303 312 316 318 320 322 321
190 164 115 39 142 218 263 271 225 223 219 186 180 185 187 189 195 199 201 201 195 195 191 191 197 199 197 198 203 206 219 204 191 186 174 167 167 164 162 169 202 293 312 315 318 322 324 325 326
158 177 78 116 145 165 154 252 209 208 199 192 192 189 186 185 191 194 192 190 188 187 191 191 190 194 194 197 201 205 201 175 168 165 161 161 161 159 165 193 283 303 307 313 321 325 325 325 325
313 190 157 178 209 118 150 274 172 224 202 182 177 190 191 191 189 189 188 188 184 181 178 181 186 189 189 188 183 175 167 164 162 164 162 160 162 166 191 255 295 310 316 320 324 326 328 328 326
Wind_Speed_850mb
7 9 3 4 7 9 5 6 3 8 7 11 24 32 18 15 5 7 41 24 27 33 30 24 21 27 30 28 26 22 23 22 21 26 32 31 33 31 29 26 27 30 36 38 39 40 38 39 37
8 8 5 7 8 4 8 6 8 7 31 41 30 24 19 5 12 33 41 25 22 36 29 25 27 32 35 31 26 21 21 22 23 27 36 24 27 30 30 30 30 35 38 40 37 35 34 35 30
7 6 2 8 6 7 9 5 12 18 20 11 13 25 12 13 32 38 31 35 28 35 29 30 33 38 34 31 24 19 20 22 24 26 40 25 23 27 29 32 32 32 35 34 33 32 33 31 25
8 6 8 8 8 7 14 13 13 22 20 15 35 17 16 13 29 25 42 29 27 34 31 35 38 36 33 32 22 18 21 21 23 27 29 27 26 29 29 29 32 31 31 30 30 22 28 24 17
6 5 7 2 6 2 4 28 20 12 14 24 12 9 9 34 26 35 37 30 30 35 34 38 40 37 34 32 23 18 21 22 23 24 26 25 24 27 28 29 31 28 29 27 23 26 25 24 19
4 4 7 4 4 6 6 35 26 13 17 25 25 18 8 33 37 42 35 31 32 39 41 42 42 36 34 31 23 20 22 22 25 26 25 25 25 26 29 28 27 23 24 24 24 24 25 22 15
5 7 9 8 10 4 12 32 30 26 23 12 40 11 28 52 45 43 35 32 37 38 40 41 41 37 33 28 22 22 23 24 24 24 25 25 25 23 24 23 22 22 21 21 21 20 18 17 14
5 9 10 6 11 9 11 16 37 42 9 37 32 16 25 60 50 43 38 33 40 38 37 38 37 35 31 27 23 23 24 24 24 23 23 23 22 20 19 18 17 16 16 17 16 15 14 13 12
7 7 6 11 14 9 18 10 14 15 28 15 20 23 44 70 59 49 42 41 40 38 38 37 35 33 29 26 26 24 23 21 20 21 22 21 20 18 16 15 13 13 14 13 12 11 11 11 11
7 8 15 12 11 14 20 25 23 13 19 8 18 24 76 76 67 58 53 49 46 44 42 38 34 31 30 27 26 23 21 19 18 18 18 19 18 17 16 14 14 14 13 12 11 10 10 11 10
9 11 10 7 18 35 34 28 14 37 4 23 44 61 86 79 72 64 57 50 46 43 43 40 37 33 30 27 25 22 18 15 14 14 13 14 14 13 13 12 11 11 12 11 10 9 8 8 9
5 8 11 5 8 30 33 32 15 25 13 33 39 62 80 86 78 70 61 54 46 44 44 41 39 35 31 28 24 21 18 15 12 10 9 9 10 9 9 9 8 7 7 8 8 8 8 10 12
9 9 14 14 19 23 27 20 16 28 16 33 51 64 73 82 77 70 56 51 47 44 46 46 44 40 35 29 26 22 19 17 14 10 8 5 4 2 2 3 3 5 6 7 7 7 8 9 10
19 15 12 21 21 23 17 10 20 20 28 54 60 64 66 75 79 68 63 57 54 44 39 39 39 37 36 34 29 26 20 18 16 13 9 8 7 6 4 4 5 7 10 11 11 12 13 16 17
21 11 3 8 20 9 29 3 11 34 44 64 64 59 62 69 73 75 68 61 55 47 38 39 37 38 39 34 32 29 22 22 16 17 15 13 13 12 10 10 10 10 11 13 13 15 17 18 17
8 8 9 7 19 9 11 14 12 40 57 63 62 56 58 65 69 69 66 60 54 46 46 40 38 37 38 39 36 34 33 26 23 18 18 19 17 17 16 15 13 14 14 14 16 17 17 20 26
9 10 8 6 15 7 5 8 11 46 55 64 61 58 58 55 60 57 58 58 53 48 46 44 41 39 35 36 43 40 39 33 31 27 22 19 16 18 18 17 16 18 17 16 17 20 23 25 32
13 10 6 13 15 8 7 9 8 46 47 55 58 57 59 60 61 53 54 53 55 52 51 47 41 41 38 35 38 43 47 48 40 35 32 26 21 18 17 18 18 19 18 19 24 28 31 35 39
10 8 11 4 10 9 17 9 17 35 35 38 48 54 60 63 55 55 56 56 55 58 57 55 52 48 47 46 44 47 47 45 45 44 36 34 30 26 25 22 23 23 23 24 30 32 37 39 43
11 13 7 3 2 7 11 18 10 19 31 52 57 57 59 59 58 59 59 64 60 58 60 58 55 52 51 49 46 44 44 43 39 37 35 32 30 28 27 26 26 29 31 31 32 36 39 43 43
20 10 12 12 7 6 12 12 9 14 33 39 46 54 58 63 61 64 63 63 65 64 61 60 56 50 48 43 40 39 42 41 38 37 35 31 31 30 30 31 31 32 35 34 33 34 34 35 37
26 15 14 19 12 9 8 9 13 15 19 20 48 49 56 61 64 59 63 65 64 64 64 62 61 55 49 43 41 41 40 40 37 34 31 29 28 27 27 24 25 26 27 27 26 28 29 32 36
18 14 21 14 8 11 6 4 13 7 16 19 46 55 51 58 61 61 64 64 64 65 66 64 63 63 61 54 44 38 39 35 32 29 27 24 21 18 19 18 19 20 22 23 25 27 26 24 31
9 12 14 9 7 7 14 14 12 13 18 17 24 60 53 53 61 64 63 61 60 62 66 67 66 64 60 54 46 47 41 38 33 27 26 24 22 20 19 20 19 19 19 16 15 15 16 20 23
17 17 5 2 4 15 1 5 18 10 12 14 41 69 60 59 58 59 57 56 53 54 55 61 68 70 65 55 52 49 44 40 35 32 30 27 25 22 20 20 15 10 9 9 10 12 15 19 24
23 22 11 15 12 8 8 14 12 9 14 24 35 71 58 58 56 51 48 45 45 44 45 49 58 64 65 59 54 51 46 42 38 35 34 31 27 23 19 12 9 4 2 5 10 15 20 24 28
17 19 11 15 5 8 9 12 14 4 1 9 35 63 62 55 50 48 45 41 39 37 38 42 52 56 58 58 60 53 45 42 37 38 36 32 26 21 17 12 7 2 5 10 16 21 24 28 31
16 17 6 4 11 7 7 8 10 12 17 15 24 53 62 52 48 46 43 39 37 40 42 46 49 53 57 58 59 65 53 36 37 36 34 31 28 23 17 10 4 6 12 17 21 25 27 29 34
5 7 5 11 8 11 4 12 17 28 32 39 39 49 61 57 54 49 44 42 41 42 47 49 50 53 55 56 58 56 44 43 41 39 37 33 27 19 12 5 6 11 15 19 23 27 32 37 41
4 14 12 10 9 1 6 10 5 11 17 30 40 58 59 57 54 50 48 47 47 47 47 48 51 54 52 52 53 55 54 49 44 40 35 28 21 14 7 5 8 14 19 24 29 34 40 45 49
Wind_Direction_850mb
247 256 200 120 58 63 288 220 151 125 59 73 88 91 103 58 64 169 139 148 168 170 166 162 150 142 140 129 119 100 85 83 95 98 91 86 85 94 100 96 95 91 94 94 91 95 93 92 92
249 248 148 101 88 72 270 320 139 147 127 102 81 87 61 69 107 139 154 159 164 169 167 159 151 142 138 132 127 104 93 92 97 98 92 89 81 88 92 94 92 93 93 95 96 95 105 101 100
235 228 135 97 117 182 185 212 157 125 130 124 101 74 82 113 126 144 161 159 169 176 167 156 151 143 142 139 132 107 96 97 99 108 107 109 99 90 92 94 92 98 96 100 105 105 106 104 100
221 158 76 92 231 234 167 189 169 125 104 85 117 72 95 135 145 157 156 159 165 168 161 155 151 141 142 143 131 102 96 99 103 112 118 111 92 89 92 99 92 95 103 103 106 106 110 114 118
236 125 73 119 294 29 152 163 156 123 113 134 128 114 85 153 166 164 160 157 173 155 153 151 149 143 144 145 131 110 108 110 107 108 108 105 95 92 95 99 99 99 88 91 87 90 107 116 113
235 114 77 199 256 98 184 164 146 130 131 131 111 102 124 155 176 170 159 155 161 151 148 150 153 149 144 147 137 120 110 110 110 111 107 103 99 98 99 101 98 100 90 88 85 97 99 106 112
162 95 179 193 172 196 202 174 151 140 148 156 135 95 142 156 167 166 163 158 158 154 148 150 153 152 148 146 132 125 119 116 112 110 106 101 103 99 98 99 90 92 87 86 84 91 94 93 85
223 103 145 185 177 215 183 153 149 148 150 150 140 151 171 165 168 170 169 165 160 155 152 151 153 158 154 148 137 133 127 123 119 113 106 100 100 98 95 91 88 81 78 73 72 78 81 79 74
196 74 174 201 152 225 172 130 151 157 142 151 187 178 175 165 165 172 177 169 172 164 158 156 156 156 156 153 145 145 139 128 118 112 108 105 102 100 92 85 84 76 71 68 65 65 59 58 59
160 142 209 189 198 189 168 134 138 143 133 111 151 167 159 167 171 176 181 177 177 172 166 162 161 161 163 162 158 152 147 138 126 113 109 105 99 96 91 86 82 73 70 64 56 52 47 50 50
179 201 199 226 212 190 156 145 153 146 232 176 154 154 161 172 177 183 186 187 183 178 173 170 170 171 170 169 168 164 159 152 144 131 120 109 102 93 90 85 77 66 59 48 40 37 31 38 42
204 237 191 210 174 174 161 156 149 164 205 190 181 165 167 176 182 187 188 188 186 188 183 177 178 178 175 179 177 176 171 169 166 152 134 120 103 91 77 72 58 45 33 21 14 20 10 7 19
226 213 168 166 180 177 155 158 172 199 176 172 169 169 176 180 186 191 194 193 193 194 196 191 188 184 184 184 187 188 185 181 185 182 176 152 124 107 63 55 21 358 355 341 336 340 350 355 349
217 201 177 168 146 166 157 147 167 180 170 169 174 180 184 186 189 193 196 198 202 203 207 206 199 195 190 190 192 196 195 199 203 201 203 209 227 247 270 306 316 322 324 323 323 324 327 326 321
206 118 6 186 161 162 145 106 203 169 169 172 182 188 192 194 194 198 202 204 206 209 212 213 211 211 200 198 198 204 208 208 218 222 220 225 235 251 268 279 295 305 308 321 318 316 322 325 327
177 91 152 242 157 181 145 227 218 175 173 179 187 191 197 198 201 203 205 210 211 214 216 216 216 218 216 212 207 203 208 215 220 228 226 232 241 248 256 266 276 282 293 305 321 319 315 328 325
212 175 161 164 195 131 168 204 213 177 181 182 191 195 199 199 206 209 210 211 213 215 218 219 224 224 226 234 217 212 215 223 226 238 238 239 241 243 254 262 270 277 286 300 310 321 313 319 311
175 155 149 162 202 136 196 230 173 183 191 194 197 199 204 205 210 207 212 214 215 221 225 229 230 229 231 234 229 214 215 220 217 224 239 234 243 248 254 262 264 278 300 300 301 298 304 305 305
174 134 145 221 191 123 197 203 203 185 201 204 207 208 207 211 212 211 214 216 216 221 224 225 228 230 229 228 227 217 219 219 221 226 236 235 242 251 261 270 280 286 285 286 288 295 297 299 304
267 169 177 13 83 142 169 231 215 199 216 210 213 213 209 205 206 208 209 211 215 219 222 226 231 233 232 234 239 236 222 224 227 230 233 236 240 249 257 265 269 272 278 281 287 291 294 299 307
245 192 177 159 128 30 116 293 213 239 230 224 223 220 211 208 205 205 205 208 210 214 221 226 230 231 232 234 234 230 221 225 227 227 232 240 252 256 258 259 258 260 268 276 281 289 299 300 302
251 189 173 145 135 184 165 244 233 214 219 214 219 213 214 210 207 207 205 208 209 213 217 224 227 229 230 229 229 233 230 223 228 233 237 240 242 247 252 254 257 258 263 273 281 286 292 291 300
249 149 159 160 125 123 228 124 263 139 225 220 219 210 207 207 205 203 203 207 212 216 218 219 222 224 225 224 227 230 225 226 232 227 229 228 229 223 233 240 249 257 267 273 279 282 287 289 288
221 103 59 61 107 224 204 159 253 192 201 212 208 204 195 194 196 198 201 208 214 220 221 221 223 224 222 218 220 223 229 225 228 224 215 217 220 222 230 242 249 256 257 266 281 298 307 301 308
193 156 117 192 206 206 67 169 234 235 237 208 191 198 198 195 199 202 209 218 224 227 226 223 223 225 224 215 212 219 222 224 228 223 220 219 219 223 230 237 244 247 265 291 312 321 323 321 317
204 190 159 179 199 174 133 226 237 224 288 264 216 196 191 195 203 210 217 220 222 222 220 217 217 217 218 213 200 213 215 220 221 216 211 214 212 214 217 212 221 227 282 328 322 319 320 321 322
200 201 160 99 7 83 205 276 304 206 342 173 172 180 186 196 202 209 212 214 209 206 203 201 203 204 207 206 199 200 202 210 204 197 199 200 199 185 176 168 167 222 303 312 316 318 320 322 321
190 164 115 39 142 218 263 271 225 223 219 186 180 185 187 189 195 199 201 201 195 195 191 191 197 199 197 198 203 206 219 204 191 186 174 167 167 164 162 169 202 293 312 315 318 322 324 325 326
158 177 78 116 145 165 154 252 209 208 199 192 192 189 186 185 191 194 192 190 188 187 191 191 190 194 194 197 201 205 201 175 168 165 161 161 161 159 165 193 283 303 307 313 321 325 325 325 325
313 190 157 178 209 118 150 274 172 224 202 182 177 190 191 191 189 189 188 188 184 181 178 181 186 189 189 188 183 175 167 164 162 164 162 160 162 166 191 255 295 310 316 320 324 326 328 328 326